www.pogodaiklimat.ru

Погода и климат >> Архив погоды >> Россия >> Магаданская область >> Эвенск


ПОГОДА в Эвенске

  • Прогноз погоды в Эвенске
  • Монитор погоды в Эвенске
  • Климат города

АРХИВ ПОГОДЫ в Эвенске

Время (UTC), дата Ветер
(напр.,м/с)
 
Видим.   Явления Облачность Т
(С)
Тd
(С)
f
(%)
Тe
(С)
Тes
(С)
Комфортность P
(гПа)
Po
(гПа)
Тmin
(С)
Tmax
(С)
R
(мм)
R24
(мм)
S
(см)
06 17.08 ЮЗ 4 2000 м дымка {морось} 10/10 90 м
[St]
+11.3 +10.3 94 +9 +9 1011.0 1009.6
09 17.08 ЮЗ 3 2000 м дымка 10/10 120 м
[St]
+10.9 +10.1 95 +9 +9 1011.0 1009.6 +12.5 0.0
12 17.08 Ю 2 н/о н/о +10.6 +9.8 95 +9 +9 1010.9 1009.5
15 17.08 Ю 2 н/о н/о +10.6 +9.8 95 +9 +9 1010.4 1009.0
18 17.08 Ю 2 н/о н/о +10.5 +9.7 95 +9 +9 1010.7 1009.3
21 17.08 Ю 2 2000 м слабая морось 10/10 120 м
[St]
+10.6 +9.9 95 +9 +9 1011.2 1009.8 +10.4 1
00 18.08 Ю 2 2000 м слабая морось 10/10 120 м
[St]
+10.7 +9.7 94 +9 +9 1011.6 1010.1 +10.4
03 18.08 ЮЗ 3 4000 м дымка {морось} 10/10 180 м
[St]
+11.5 +9.7 89 +10 +10 1010.9 1009.5
06 18.08 ЮЗ 3 4000 м дымка {морось} 10/10 210 м
[St]
+11.1 +9.9 92 +9 +9 1010.6 1009.1
09 18.08 ЮЗ 2 4000 м дымка {морось} 10/10 240 м
[St]
+10.9 +9.9 94 +9 +9 1010.7 1009.3 +12.3 0.0
12 18.08 Ю 4 н/о н/о +10.4 +9.5 94 +8 +8 1010.6 1009.2
15 18.08 Ю 2 н/о н/о +10.2 +9.0 92 +9 +9 1009.9 1008.4
18 18.08 штиль 0 н/о н/о +10.1 +9.0 93 +9 +9 1009.9 1008.5
21 18.08 Ю 1 4000 м дымка 10/10 240 м
[St]
+11.1 +9.8 92 +11 +11 1010.4 1009.0 +10.1
00 19.08 ЮЗ 2 4000 м дымка 9/9 300 м
[St Ac trans]
+12.8 +9.6 81 +12 +13 1010.9 1009.5
03 19.08 ЮЗ 2 10 км 10/8 210 м
[St Ac As]
+13.3 +10.2 81 +13 +13 1011.2 1009.8
06 19.08 ЮЗ 2 10 км 10/10 270 м
[St]
+12.3 +9.8 85 +11 +11 1011.1 1009.7
09 19.08 ЮЗ 1 10 км 10/10 240 м
[St]
+11.7 +9.9 89 +11 +11 1011.9 1010.5 +13.8
12 19.08 штиль 0 н/о н/о +10.9 +10.0 94 +10 +10 1012.5 1011.1
15 19.08 Ю 1 н/о н/о +11.1 +10.2 94 +11 +11 1012.1 1010.6
18 19.08 ЮЗ 1 н/о н/о +11.0 +10.2 95 +11 +11 1012.2 1010.8
21 19.08 ЮЗ 1 2000 м слабая морось {дождь} 10/10 90 м
[St]
+11.5 +10.7 95 +11 +11 1012.2 1010.8 +10.8 2
00 20.08 Ю 2 4000 м дымка {морось} 10/10 150 м
[St]
+11.4 +10.4 94 +10 +10 1012.2 1010.8
03 20.08 Ю 2 2000 м слабая морось 10/10 90 м
[St]
+11.6 +10.8 95 +10 +10 1011.9 1010.5
06 20.08 Ю 2 2000 м слабая морось 10/10 90 м
[St]
+11.1 +10.3 95 +10 +10 1011.5 1010.1
09 20.08 ЮЗ 2 2000 м слабая морось {дождь} 10/10 90 м
[St]
+10.8 +9.9 94 +9 +9 1012.0 1010.6 +11.9 1
12 20.08 ЮЗ 4 н/о н/о +11.6 +10.9 95 +9 +9 1012.5 1011.1
15 20.08 ЮЗ 3 н/о н/о +11.0 +10.3 95 +9 +9 1012.7 1011.3
18 20.08 ЮЗ 3 н/о н/о +10.8 +9.9 94 +9 +9 1012.8 1011.4
21 20.08 Ю 2 4000 м дымка {ливн. осадки, морось} 10/10 240 м
[St]
+11.5 +10.2 92 +10 +10 1013.6 1012.2 +10.8 1
00 21.08 ЮЗ 3 4000 м дымка {ливн. осадки, морось} 10/10 180 м
[St]
+13.0 +10.8 86 +12 +12 1014.1 1012.7
03 21.08 Ю 3 10 км 10/10 180 м
[St]
+13.0 +10.9 87 +12 +12 1013.9 1012.4
06 21.08 Ю 1 10 км 10/10 180 м
[St]
+12.5 +10.6 88 +12 +12 1014.0 1012.6
09 21.08 ЮЗ 1 10 км 10/10 150 м
[St]
+11.8 +10.4 91 +12 +12 1014.9 1013.5 +13.7 0.0
12 21.08 СВ 1 н/о н/о +11.6 +10.3 92 +11 +11 1015.7 1014.3
15 21.08 СВ 2 н/о н/о +10.3 +9.3 94 +9 +9 1015.6 1014.1
18 21.08 СЗ 2 н/о н/о +11.6 +10.1 91 +10 +10 1015.8 1014.3
21 21.08 В 2 50 км 10/10 600 м
[Cb calv]
+14.3 +11.5 83 +14 +14 1016.0 1014.6 +10.0
00 22.08 СВ 3 50 км 9/8 600 м
[Cb calv Ci fib]
+16.6 +11.0 69 +16 +18 1015.8 1014.4
03 22.08 ЮВ 1 50 км 8/8 600 м
[Cb calv]
+20.1 +10.5 54 +23 +24 комфорт 1014.4 1013.0
06 22.08 Ю 1 50 км 8/8 600 м
[Cb calv]
+19.7 +10.1 54 +22 +23 комфорт 1013.3 1011.9
09 22.08 штиль 0 50 км 8/8 1000 м
[Sc]
+15.9 +11.4 75 +16 +16 1013.7 1012.3 +20.4
12 22.08 В 2 н/о н/о +11.1 +8.8 86 +10 +10 1013.9 1012.5
15 22.08 СВ 3 н/о н/о +8.4 +7.1 92 +6 +6 1013.1 1011.6
18 22.08 СВ 2 н/о н/о +9.1 +7.4 89 +7 +7 1013.1 1011.7
21 22.08 В 3 50 км 1/0
[Ci fib]
+14.6 +9.7 72 +14 +16 1012.8 1011.4 +8.2
00 23.08 штиль 0 50 км 1/1 1000 м
[Cb calv]
+19.9 +10.4 54 +21 +30 комфорт 1012.0 1010.6
03 23.08 З 3 50 км 6/3 1000 м
[Cb calv Ac trans Ci fib]
+18.2 +11.8 66 +19 +22 1010.8 1009.4
06 23.08 З 3 50 км 4/0
[Ci fib]
+17.2 +11.4 69 +17 +19 1009.8 1008.4
09 23.08 ЮЗ 3 50 км 3/0
[Ci fib]
+14.5 +11.1 80 +14 +14 1009.9 1008.5 +21.0
12 23.08 штиль 0 н/о н/о +10.0 +7.8 86 +9 +9 1010.2 1008.8
15 23.08 штиль 0 н/о н/о +5.7 +5.1 96 +5 +5 1010.5 1009.0
18 23.08 В 3 н/о н/о +3.2 +2.6 96 -1 -1 1010.9 1009.4
21 23.08 штиль 0 50 км 8/0
[Ci fib]
+8.4 +7.8 96 +7 +10 1011.1 1009.7 +3.1
00 24.08 ЮЗ 3 2000 м дымка {туман} 10/10 120 м
[St]
+14.4 +11.8 84 +13 +13 1011.1 1009.7
03 24.08 ЮЗ 4 50 км ясно +16.8 +11.4 70 +16 +21 1010.7 1009.3

 

Местоположение метеостанции Эвенск (Магаданская область, Россия): широта 61.92 долгота 159.20 высота над уровнем моря 12 м.

В архиве по умолчанию представлена погода в Эвенске за последнюю неделю. Архивные данные за месяц целиком и за предыдущие месяцы, начиная с января 2011 года, Вы можете получить, выбрав интересующий диапазон дат из раскрывающегося списка и нажав кнопку "Ввод!".

Внимание! Время в таблицах - всемирное. Для получения местного времени необходимо прибавить поправку, которая в Эвенске равна 11 ч.

Смотрите также архив погоды в соседних городах и на ближайших метеорологических станциях:

Погода в Лабазной (Магаданская область, Россия) (158 км)
Погода в Омсукчане (Магаданская область, Россия) (188 км)
Погода в Шелихова (Магаданская область, Россия) (225 км)
Погода в Чемурнауте (Камчатский край, Россия) (242 км)
Погода в Кегали (Магаданская область, Россия) (275 км)
Погода в Палане (Камчатский край, Россия) (318 км)
Погода в Балыгычане (Магаданская область, Россия) (340 км)
Погода в Верхне-Пенжино (Камчатский край, Россия) (359 км)
Погода в Среднекане (Магаданская область, Россия) (363 км)
Погода в Оссоре (Камчатский край, Россия) (364 км)

Пояснения к столбцам:

Ветер - указаны скорость ветра в м/с - средняя за 10 мин, порывы в срок и между сроками (в фигурных скобках) и направление, откуда дует ветер: С - северный, СВ - северо-восточный, В - восточный, ЮВ - юго-восточный, Ю - южный, ЮЗ - юго-западный, З - западный, СЗ - северо-западный.
Видимость - горизонтальная дальность видимости в метрах или километрах. При видимости от 1 до 10 км при отсутствии осадков обычно наблюдается дымка, при ухудшении видимости до 1 км и менее - туман. В сухую погоду видимость может ухудшаться дымом, пылью или мглою.
Явления - указаны атмосферные явления, наблюдавшиеся в срок или в последний час перед сроком; фигурными скобками обозначены явления, наблюдавшиеся между сроками (за 1-3 часа до срока); квадратными скобками обозначены град или гололедные отложения с указанием их диаметра в мм.
Облачность - указаны через наклонную черту общая и нижняя облачность в баллах и высота нижней границы облаков в метрах; квадратными скобками обозначены формы облаков: Ci - перистые, Cs - перисто-слоистые, Cc - перисто-кучевые, Ac - высококучевые, As - высокослоистые, Sc - слоисто-кучевые, Ns - слоисто-дождевые, Cu - кучевые, Cb - кучево-дождевые. Подробнее классификацию облаков см. в Атласе облаков (PDF).
T - Температура воздуха - температура, измеренная на высоте 2 м над землей.
Td - Температура точки росы - температура, при понижении до которой содержащийся в воздухе водяной пар достигнет насыщения.
f - Относительная влажность воздуха - влажноcть воздуха, измеренная на высоте 2 м над землей.
Te - Эффективная температура - температура, которую ощущает одетый по сезону человек в тени. Характеристика душности погоды. При расчете учитывается влияние влажности воздуха и скорости ветра на теплоощущения человека.
Tes - Эффективная температура на солнце - температура, которую ощущает человек, с поправкой на солнечный нагрев. Характеристика знойности погоды. Зависит от высоты солнца над горизонтом, облачности и скорости ветра. Ночью, в пасмурную погоду, а также при ветре 12 м/с и более поправка равна нулю.
P - Атмосферное давление - приведенное к уровню моря атмосферное давление.
Po - Атмосферное давление - измеренное на уровне метеостанции атмосферное давление.
Tmin - Минимальная температура - минимум температуры воздуха на высоте 2 м над землей.
Tmax - Максимальная температура - максимум температуры воздуха на высоте 2 м над землей.
R - Количество осадков - Количество выпавших осадков за период времени, мм. При наведении курсора мыши на число - период времени, за который выпало указанное количество осадков.
R24 - Количество осадков - Количество выпавших осадков за 24 часа, мм.
S - Снежный покров - Высота снежного покрова, см. При наведении курсора мыши на число - состояние снежного покрова и степень покрытия местности в баллах.